When you browse on this site, cookies collect data to enhance your experience and personalize the content and advertising you see.
Visit our Privacy Policy to learn more. By continuing to use the site, you agree to this use of cookies and data.

Meteo pe oră la Dziad

Astăzi, 19 Septembrie, Sâmbătă

Timp Temperatura Precipitaţii Vânt Presiune Umiditate
00:00 +9°C° 0 mm 2 m/s 752 mmHg 73%
01:00 +9°C° 0 mm 2 m/s 752 mmHg 75%
02:00 +9°C° 0 mm 2 m/s 752 mmHg 78%
03:00 +9°C° 0 mm 1 m/s 752 mmHg 79%
04:00 +9°C° 0 mm 1 m/s 752 mmHg 80%
05:00 +9°C° 0 mm 1 m/s 752 mmHg 82%
06:00 +10°C° 0 mm 1 m/s 752 mmHg 78%
07:00 +11°C° 0 mm 1 m/s 752 mmHg 74%
08:00 +12°C° 0 mm 1 m/s 752 mmHg 71%
09:00 +14°C° 0 mm 1 m/s 752 mmHg 63%
10:00 +15°C° 0 mm 1 m/s 752 mmHg 56%
11:00 +18°C° 0 mm 1 m/s 752 mmHg 49%
12:00 +19°C° 0 mm 1 m/s 751 mmHg 45%
13:00 +19°C° 0 mm 1 m/s 751 mmHg 41%
14:00 +19°C° 0 mm 2 m/s 751 mmHg 37%
15:00 +20°C° 0 mm 1 m/s 750 mmHg 40%
16:00 +20°C° 0 mm 1 m/s 750 mmHg 43%
17:00 +19°C° 0 mm 1 m/s 750 mmHg 46%
18:00 +18°C° 0 mm 1 m/s 750 mmHg 47%
19:00 +15°C° 0 mm 1 m/s 750 mmHg 48%
20:00 +13°C° 0 mm 1 m/s 749 mmHg 49%
21:00 +13°C° 0 mm 1 m/s 749 mmHg 51%
22:00 +12°C° 0 mm 1 m/s 750 mmHg 53%
23:00 +12°C° 0 mm 1 m/s 750 mmHg 54%

Mâine, 20 Septembrie, Duminică

Timp Temperatura Precipitaţii Vânt Presiune Umiditate
00:00 +11°C° 0 mm 1 m/s 750 mmHg 56%
01:00 +11°C° 0 mm 1 m/s 749 mmHg 58%
02:00 +11°C° 0 mm 1 m/s 749 mmHg 60%
03:00 +10°C° 0 mm 1 m/s 749 mmHg 62%
04:00 +10°C° 0 mm 1 m/s 749 mmHg 64%
05:00 +9°C° 0 mm 1 m/s 749 mmHg 65%
06:00 +10°C° 0 mm 1 m/s 749 mmHg 65%
07:00 +11°C° 0 mm 1 m/s 749 mmHg 64%
08:00 +12°C° 0 mm 2 m/s 749 mmHg 63%
09:00 +13°C° 0 mm 2 m/s 749 mmHg 59%
10:00 +15°C° 0 mm 2 m/s 749 mmHg 55%
11:00 +17°C° 0 mm 3 m/s 749 mmHg 50%
12:00 +17°C° 0 mm 3 m/s 749 mmHg 48%
13:00 +18°C° 0 mm 3 m/s 749 mmHg 45%
14:00 +19°C° 0 mm 3 m/s 749 mmHg 42%
15:00 +19°C° 0 mm 3 m/s 749 mmHg 46%
16:00 +18°C° 0 mm 2 m/s 748 mmHg 50%
17:00 +18°C° 0 mm 2 m/s 748 mmHg 55%
18:00 +16°C° 0 mm 2 m/s 748 mmHg 56%
19:00 +15°C° 0 mm 2 m/s 748 mmHg 58%
20:00 +13°C° 0 mm 3 m/s 748 mmHg 60%
21:00 +13°C° 0 mm 3 m/s 748 mmHg 60%
22:00 +12°C° 0 mm 3 m/s 748 mmHg 60%
23:00 +12°C° 0 mm 3 m/s 748 mmHg 60%

Poimâine, 21 Septembrie, Luni

Timp Temperatura Precipitaţii Vânt Presiune Umiditate
00:00 +12°C° 0 mm 3 m/s 748 mmHg 61%
01:00 +11°C° 0 mm 3 m/s 748 mmHg 61%
02:00 +11°C° 0 mm 3 m/s 747 mmHg 62%
03:00 +11°C° 0 mm 3 m/s 747 mmHg 61%
04:00 +11°C° 0 mm 3 m/s 747 mmHg 61%
05:00 +11°C° 0 mm 3 m/s 747 mmHg 61%
06:00 +12°C° 0 mm 2 m/s 747 mmHg 61%
07:00 +13°C° 0 mm 2 m/s 747 mmHg 62%
08:00 +13°C° 0 mm 2 m/s 747 mmHg 62%
09:00 +15°C° 0 mm 2 m/s 747 mmHg 59%
10:00 +17°C° 0 mm 2 m/s 747 mmHg 56%
11:00 +19°C° 0 mm 2 m/s 747 mmHg 53%
12:00 +20°C° 0 mm 2 m/s 747 mmHg 50%
13:00 +23°C° 0 mm 2 m/s 747 mmHg 47%
14:00 +24°C° 0 mm 2 m/s 747 mmHg 43%
15:00 +24°C° 0 mm 2 m/s 746 mmHg 46%
16:00 +23°C° 0 mm 1 m/s 746 mmHg 49%
17:00 +23°C° 0 mm 1 m/s 746 mmHg 52%
18:00 +21°C° 0 mm 1 m/s 746 mmHg 55%
19:00 +19°C° 0 mm 1 m/s 746 mmHg 59%
20:00 +18°C° 0 mm 1 m/s 746 mmHg 62%
21:00 +16°C° 0 mm 1 m/s 746 mmHg 63%
22:00 +16°C° 0 mm 2 m/s 746 mmHg 65%
23:00 +15°C° 0 mm 2 m/s 746 mmHg 66%

22 Septembrie, Marţi

Timp Temperatura Precipitaţii Vânt Presiune Umiditate
00:00 +15°C° 0 mm 2 m/s 746 mmHg 66%
01:00 +15°C° 0 mm 1 m/s 746 mmHg 67%
02:00 +14°C° 0 mm 1 m/s 745 mmHg 67%
03:00 +14°C° 0 mm 1 m/s 745 mmHg 69%
04:00 +14°C° 0 mm 1 m/s 745 mmHg 70%
05:00 +14°C° 0 mm 1 m/s 745 mmHg 71%
06:00 +14°C° 0 mm 1 m/s 745 mmHg 70%
07:00 +15°C° 0 mm 1 m/s 745 mmHg 68%
08:00 +16°C° 0 mm 1 m/s 745 mmHg 67%
09:00 +18°C° 0 mm 2 m/s 745 mmHg 61%
10:00 +20°C° 0 mm 2 m/s 746 mmHg 55%
11:00 +23°C° 0 mm 2 m/s 746 mmHg 49%
12:00 +24°C° 0 mm 2 m/s 745 mmHg 47%
13:00 +25°C° 0 mm 3 m/s 745 mmHg 44%
14:00 +26°C° 0 mm 3 m/s 745 mmHg 41%
15:00 +26°C° 0 mm 3 m/s 744 mmHg 44%
16:00 +25°C° 0 mm 2 m/s 744 mmHg 48%
17:00 +24°C° 0 mm 2 m/s 743 mmHg 51%
18:00 +23°C° 0 mm 2 m/s 743 mmHg 56%
19:00 +20°C° 0 mm 3 m/s 743 mmHg 60%
20:00 +18°C° 0 mm 3 m/s 743 mmHg 64%
21:00 +18°C° 0 mm 3 m/s 743 mmHg 66%
22:00 +17°C° 0 mm 3 m/s 743 mmHg 69%
23:00 +17°C° 0 mm 3 m/s 742 mmHg 71%

23 Septembrie, Miercuri

Timp Temperatura Precipitaţii Vânt Presiune Umiditate
00:00 +16°C° 0 mm 3 m/s 742 mmHg 71%
01:00 +16°C° 0 mm 3 m/s 742 mmHg 71%
02:00 +16°C° 0 mm 3 m/s 741 mmHg 70%
03:00 +16°C° 0 mm 3 m/s 741 mmHg 70%
04:00 +14°C° 0 mm 3 m/s 741 mmHg 70%
05:00 +14°C° 0 mm 3 m/s 741 mmHg 70%
06:00 +15°C° 0 mm 4 m/s 741 mmHg 68%
07:00 +15°C° 0 mm 4 m/s 740 mmHg 66%
08:00 +17°C° 0 mm 4 m/s 740 mmHg 64%
09:00 +19°C° 0 mm 5 m/s 740 mmHg 58%
10:00 +21°C° 0 mm 5 m/s 740 mmHg 52%
11:00 +23°C° 0 mm 5 m/s 740 mmHg 47%
12:00 +25°C° 0 mm 5 m/s 740 mmHg 44%
13:00 +26°C° 0 mm 5 m/s 739 mmHg 42%
14:00 +27°C° 0 mm 6 m/s 739 mmHg 39%
15:00 +26°C° 0 mm 5 m/s 739 mmHg 43%
16:00 +25°C° 0 mm 4 m/s 738 mmHg 47%
17:00 +23°C° 0 mm 4 m/s 738 mmHg 51%
18:00 +22°C° 0 mm 4 m/s 738 mmHg 52%
19:00 +21°C° 0 mm 4 m/s 738 mmHg 53%
20:00 +20°C° 0 mm 4 m/s 738 mmHg 54%
21:00 +19°C° 0 mm 4 m/s 738 mmHg 55%
22:00 +19°C° 0 mm 4 m/s 738 mmHg 57%
23:00 +18°C° 0 mm 4 m/s 738 mmHg 58%

24 Septembrie, Joi

Timp Temperatura Precipitaţii Vânt Presiune Umiditate
00:00 +18°C° 0 mm 4 m/s 738 mmHg 59%
01:00 +17°C° 0 mm 3 m/s 738 mmHg 60%
02:00 +17°C° 0 mm 3 m/s 738 mmHg 61%
03:00 +17°C° 0 mm 3 m/s 738 mmHg 61%
04:00 +17°C° 0 mm 3 m/s 738 mmHg 62%
05:00 +16°C° 0 mm 3 m/s 738 mmHg 62%
06:00 +17°C° 0 mm 3 m/s 738 mmHg 62%
07:00 +17°C° 0 mm 3 m/s 738 mmHg 62%
08:00 +18°C° 0 mm 3 m/s 738 mmHg 63%
09:00 +20°C° 0 mm 3 m/s 738 mmHg 59%
10:00 +21°C° 0 mm 3 m/s 739 mmHg 55%
11:00 +24°C° 0 mm 3 m/s 739 mmHg 52%
12:00 +24°C° 0 mm 3 m/s 739 mmHg 52%
13:00 +25°C° 0 mm 3 m/s 739 mmHg 52%
14:00 +26°C° 0 mm 3 m/s 739 mmHg 52%
15:00 +25°C° 0 mm 3 m/s 739 mmHg 56%
16:00 +25°C° 0 mm 3 m/s 738 mmHg 59%
17:00 +24°C° 0 mm 3 m/s 738 mmHg 62%
18:00 +22°C° 0 mm 3 m/s 738 mmHg 65%
19:00 +21°C° 0 mm 3 m/s 738 mmHg 69%
20:00 +20°C° 0 mm 2 m/s 738 mmHg 73%
21:00 +19°C° 0 mm 3 m/s 738 mmHg 75%
22:00 +18°C° 0 mm 3 m/s 738 mmHg 78%
23:00 +18°C° 0 mm 3 m/s 738 mmHg 81%
Arată mai mult